ARIRANG-3 (KOMPSAT-3)

Last updated on Wed Sep 17 2025 00:02:30 GMT+0000 (Coordinated Universal Time)

1 38338U 12025B 25259.59658903 .00000513 00000+0 11314-3 0 9994 2 38338 98.3152 213.6142 0004695 230.3842 129.6945 14.61531483711371
UTC large
Height (km)
Speed (km/s)
/
Latitude / Longitude
Inclination (degrees)
Orbital Period (minutes)
Azimuth
Elevation
Range (km)
Doppler Factor

Next 0 passes for location: London (51.5072 / 0.1276)

Sorry there are no passes over London.